When you browse on this site, cookies collect data to enhance your experience and personalize the content and advertising you see.
Visit our Privacy Policy to learn more. By continuing to use the site, you agree to this use of cookies and data.
  • In Schweiz
  • Länderverzeichnis
  • Für 7 Tage
  • Wassertemperatur
  • Wetterkarte
  • Widgets
  • user-avatar
    Anmelden

    Stündliche Wetter Meribel

    Heute, 3 Juni, Mittwoch

    Zeit Temperatur Niederschläge Wind Luftdruck Luftfeuchtigkeit
    00:00 +8°C° 0 mm 1 m/S 629 mmHg 92%
    01:00 +8°C° 0 mm 1 m/S 629 mmHg 92%
    02:00 +8°C° 0 mm 1 m/S 628 mmHg 92%
    03:00 +8°C° 0 mm 1 m/S 628 mmHg 92%
    04:00 +9°C° 0 mm 1 m/S 628 mmHg 88%
    05:00 +9°C° 0 mm 0 m/S 628 mmHg 85%
    06:00 +11°C° 0 mm 0 m/S 629 mmHg 81%
    07:00 +13°C° 0 mm 1 m/S 629 mmHg 71%
    08:00 +15°C° 0 mm 1 m/S 629 mmHg 61%
    09:00 +18°C° 0 mm 1 m/S 630 mmHg 52%
    10:00 +17°C° 0 mm 2 m/S 629 mmHg 49%
    11:00 +18°C° 0 mm 2 m/S 629 mmHg 46%
    12:00 +19°C° 0 mm 2 m/S 629 mmHg 43%
    13:00 +18°C° 0.7 mm 2 m/S 628 mmHg 52%
    14:00 +17°C° 0.7 mm 2 m/S 628 mmHg 62%
    15:00 +16°C° 0.7 mm 2 m/S 627 mmHg 71%
    16:00 +15°C° 1.2 mm 2 m/S 626 mmHg 76%
    17:00 +14°C° 1.2 mm 1 m/S 626 mmHg 82%
    18:00 +13°C° 1.2 mm 1 m/S 625 mmHg 87%
    19:00 +12°C° 0.3 mm 1 m/S 625 mmHg 89%
    20:00 +11°C° 0.3 mm 1 m/S 625 mmHg 90%
    21:00 +10°C° 0.3 mm 1 m/S 625 mmHg 92%
    22:00 +10°C° 0 mm 1 m/S 625 mmHg 91%
    23:00 +10°C° 0 mm 1 m/S 624 mmHg 91%

    Morgen, 4 Juni, Donnerstag

    Zeit Temperatur Niederschläge Wind Luftdruck Luftfeuchtigkeit
    00:00 +9°C° 0 mm 1 m/S 624 mmHg 90%
    01:00 +9°C° 0 mm 1 m/S 623 mmHg 90%
    02:00 +9°C° 0 mm 1 m/S 623 mmHg 89%
    03:00 +8°C° 0 mm 1 m/S 622 mmHg 89%
    04:00 +9°C° 0.2 mm 1 m/S 622 mmHg 89%
    05:00 +9°C° 0.2 mm 1 m/S 622 mmHg 89%
    06:00 +10°C° 0.2 mm 1 m/S 622 mmHg 89%
    07:00 +9°C° 1.7 mm 1 m/S 621 mmHg 91%
    08:00 +9°C° 1.7 mm 1 m/S 621 mmHg 94%
    09:00 +9°C° 1.7 mm 1 m/S 621 mmHg 97%
    10:00 +8°C° 2.4 mm 1 m/S 621 mmHg 97%
    11:00 +8°C° 2.4 mm 1 m/S 621 mmHg 97%
    12:00 +8°C° 2.4 mm 1 m/S 620 mmHg 97%
    13:00 +8°C° 1.4 mm 1 m/S 620 mmHg 97%
    14:00 +8°C° 1.4 mm 1 m/S 620 mmHg 97%
    15:00 +8°C° 1.4 mm 1 m/S 620 mmHg 97%
    16:00 +8°C° 0.4 mm 1 m/S 620 mmHg 97%
    17:00 +8°C° 0.4 mm 1 m/S 620 mmHg 96%
    18:00 +8°C° 0.4 mm 1 m/S 619 mmHg 96%
    19:00 +8°C° 0.1 mm 1 m/S 619 mmHg 96%
    20:00 +7°C° 0.1 mm 1 m/S 619 mmHg 96%
    21:00 +7°C° 0.1 mm 1 m/S 620 mmHg 96%
    22:00 +7°C° 0.1 mm 1 m/S 620 mmHg 96%
    23:00 +7°C° 0.1 mm 1 m/S 620 mmHg 97%

    übermorgen, 5 Juni, Freitag

    Zeit Temperatur Niederschläge Wind Luftdruck Luftfeuchtigkeit
    00:00 +5°C° 0.1 mm 2 m/S 620 mmHg 97%
    01:00 +5°C° 0.6 mm 2 m/S 620 mmHg 98%
    02:00 +5°C° 0.6 mm 2 m/S 620 mmHg 98%
    03:00 +5°C° 0.6 mm 2 m/S 620 mmHg 99%
    04:00 +5°C° 0.9 mm 2 m/S 620 mmHg 98%
    05:00 +5°C° 0.9 mm 2 m/S 620 mmHg 98%
    06:00 +5°C° 0.9 mm 2 m/S 620 mmHg 98%
    07:00 +6°C° 0.3 mm 2 m/S 621 mmHg 95%
    08:00 +6°C° 0.3 mm 2 m/S 621 mmHg 93%
    09:00 +7°C° 0.3 mm 2 m/S 622 mmHg 90%
    10:00 +8°C° 0.2 mm 3 m/S 622 mmHg 87%
    11:00 +8°C° 0.2 mm 3 m/S 623 mmHg 84%
    12:00 +9°C° 0.2 mm 3 m/S 623 mmHg 81%
    13:00 +9°C° 0.1 mm 3 m/S 623 mmHg 78%
    14:00 +9°C° 0.1 mm 3 m/S 624 mmHg 76%
    15:00 +10°C° 0.1 mm 3 m/S 624 mmHg 74%
    16:00 +9°C° 0 mm 2 m/S 624 mmHg 77%
    17:00 +8°C° 0 mm 2 m/S 624 mmHg 79%
    18:00 +8°C° 0 mm 2 m/S 624 mmHg 82%
    19:00 +7°C° 0 mm 2 m/S 624 mmHg 84%
    20:00 +6°C° 0 mm 2 m/S 625 mmHg 86%
    21:00 +6°C° 0 mm 1 m/S 625 mmHg 89%
    22:00 +6°C° 0 mm 1 m/S 625 mmHg 87%
    23:00 +6°C° 0 mm 1 m/S 625 mmHg 85%

    6 Juni, Samstag

    Zeit Temperatur Niederschläge Wind Luftdruck Luftfeuchtigkeit
    00:00 +6°C° 0 mm 1 m/S 625 mmHg 84%
    01:00 +5°C° 0 mm 1 m/S 625 mmHg 85%
    02:00 +5°C° 0 mm 1 m/S 625 mmHg 86%
    03:00 +5°C° 0 mm 1 m/S 625 mmHg 86%
    04:00 +6°C° 0 mm 1 m/S 625 mmHg 84%
    05:00 +8°C° 0 mm 1 m/S 626 mmHg 83%
    06:00 +9°C° 0 mm 1 m/S 626 mmHg 81%
    07:00 +10°C° 0 mm 1 m/S 627 mmHg 76%
    08:00 +12°C° 0 mm 1 m/S 628 mmHg 72%
    09:00 +13°C° 0 mm 2 m/S 628 mmHg 67%
    10:00 +14°C° 0 mm 2 m/S 628 mmHg 66%
    11:00 +14°C° 0 mm 2 m/S 628 mmHg 65%
    12:00 +15°C° 0 mm 2 m/S 628 mmHg 63%
    13:00 +15°C° 0.3 mm 2 m/S 628 mmHg 66%
    14:00 +15°C° 0.3 mm 2 m/S 628 mmHg 68%
    15:00 +15°C° 0.3 mm 2 m/S 628 mmHg 70%
    16:00 +14°C° 0.6 mm 2 m/S 627 mmHg 77%
    17:00 +13°C° 0.6 mm 2 m/S 627 mmHg 83%
    18:00 +12°C° 0.6 mm 1 m/S 627 mmHg 89%
    19:00 +11°C° 0.3 mm 1 m/S 627 mmHg 91%
    20:00 +10°C° 0.3 mm 1 m/S 627 mmHg 93%
    21:00 +9°C° 0.3 mm 1 m/S 627 mmHg 95%
    22:00 +8°C° 0.2 mm 1 m/S 627 mmHg 95%
    23:00 +8°C° 0.2 mm 1 m/S 626 mmHg 95%

    7 Juni, Sonntag

    Zeit Temperatur Niederschläge Wind Luftdruck Luftfeuchtigkeit
    00:00 +8°C° 0.2 mm 1 m/S 626 mmHg 95%
    01:00 +8°C° 0.1 mm 1 m/S 626 mmHg 95%
    02:00 +7°C° 0.1 mm 1 m/S 626 mmHg 94%
    03:00 +7°C° 0.1 mm 1 m/S 625 mmHg 94%
    04:00 +8°C° 0.1 mm 1 m/S 626 mmHg 93%
    05:00 +9°C° 0.1 mm 1 m/S 626 mmHg 91%
    06:00 +10°C° 0.1 mm 1 m/S 627 mmHg 90%
    07:00 +10°C° 0.7 mm 1 m/S 627 mmHg 90%
    08:00 +10°C° 0.7 mm 1 m/S 627 mmHg 91%
    09:00 +10°C° 0.7 mm 2 m/S 628 mmHg 91%
    10:00 +10°C° 0.8 mm 2 m/S 628 mmHg 91%
    11:00 +10°C° 0.8 mm 1 m/S 628 mmHg 91%
    12:00 +10°C° 0.8 mm 1 m/S 628 mmHg 92%
    13:00 +10°C° 0.3 mm 1 m/S 628 mmHg 91%
    14:00 +10°C° 0.3 mm 2 m/S 628 mmHg 90%
    15:00 +10°C° 0.3 mm 2 m/S 628 mmHg 90%
    16:00 +9°C° 0.3 mm 2 m/S 627 mmHg 91%
    17:00 +9°C° 0.3 mm 2 m/S 627 mmHg 92%
    18:00 +8°C° 0.3 mm 2 m/S 627 mmHg 93%
    19:00 +8°C° 0 mm 2 m/S 627 mmHg 94%
    20:00 +8°C° 0 mm 1 m/S 628 mmHg 95%
    21:00 +8°C° 0 mm 1 m/S 628 mmHg 96%
    22:00 +7°C° 0 mm 1 m/S 628 mmHg 96%
    23:00 +7°C° 0 mm 1 m/S 628 mmHg 96%

    8 Juni, Montag

    Zeit Temperatur Niederschläge Wind Luftdruck Luftfeuchtigkeit
    00:00 +7°C° 0 mm 1 m/S 628 mmHg 96%
    01:00 +6°C° 0 mm 1 m/S 628 mmHg 96%
    02:00 +6°C° 0 mm 1 m/S 627 mmHg 96%
    03:00 +6°C° 0 mm 1 m/S 627 mmHg 96%
    04:00 +6°C° 0 mm 1 m/S 627 mmHg 94%
    05:00 +6°C° 0 mm 1 m/S 627 mmHg 92%
    06:00 +6°C° 0 mm 1 m/S 628 mmHg 91%
    07:00 +7°C° 0 mm 1 m/S 628 mmHg 85%
    08:00 +8°C° 0 mm 1 m/S 628 mmHg 80%
    09:00 +8°C° 0 mm 2 m/S 628 mmHg 75%
    10:00 +8°C° 0 mm 2 m/S 629 mmHg 72%
    11:00 +9°C° 0 mm 2 m/S 629 mmHg 70%
    12:00 +9°C° 0 mm 2 m/S 629 mmHg 67%
    13:00 +9°C° 0 mm 2 m/S 629 mmHg 66%
    14:00 +9°C° 0 mm 2 m/S 629 mmHg 65%
    15:00 +9°C° 0 mm 2 m/S 629 mmHg 64%
    16:00 +9°C° 0 mm 2 m/S 629 mmHg 67%
    17:00 +8°C° 0 mm 2 m/S 629 mmHg 69%
    18:00 +8°C° 0 mm 2 m/S 628 mmHg 72%
    19:00 +6°C° 0 mm 2 m/S 628 mmHg 78%
    20:00 +6°C° 0 mm 1 m/S 628 mmHg 84%
    21:00 +4°C° 0 mm 1 m/S 628 mmHg 91%
    22:00 +4°C° 0 mm 1 m/S 629 mmHg 91%
    23:00 +4°C° 0 mm 1 m/S 629 mmHg 92%
    Mehr zeigen